DW2199 Weather Reports


Display with metric or nautical units.
time (UTC)temp
F
wind
direction
speed
MPH
gust
MPH
rain 1hr
in
rain 24hr
in
rain mn
in
humidity
%
barometer
mb
20260901094558 66 211 0.0 0.0 0.00 0.00 0.00 94 1015.3
20260901093045 66 211 0.0 0.0 0.00 0.00 0.00 93 1015.3
20260901091545 67 211 0.0 0.0 0.00 0.00 0.00 92 1015.2
20260901090049 67 211 0.0 0.0 0.00 0.00 0.00 92 1015.1
20260901084549 67 211 0.0 0.0 0.00 0.00 0.00 91 1015.1
20260901083042 66 211 0.0 0.0 0.00 0.00 0.00 91 1015.1
20260901081541 66 211 0.0 0.0 0.00 0.00 0.00 91 1015.3
20260901080040 67 211 0.0 0.0 0.00 0.00 0.00 91 1015.4
20260901074545 67 211 0.0 0.0 0.00 0.00 0.00 91 1015.4
20260901073022 67 211 0.0 0.0 0.00 0.00 0.00 91 1015.6
20260901071522 67 211 0.0 0.0 0.00 0.00 0.00 90 1015.6
20260901070009 67 211 0.0 0.0 0.00 0.00 0.00 90 1015.5
20260901064516 67 211 0.0 0.0 0.00 0.00 0.00 90 1015.5
20260901063006 67 211 0.0 0.0 0.00 0.00 0.00 90 1015.6
20260901061504 67 211 0.0 0.0 0.00 0.00 0.00 90 1016.0
20260901060003 67 211 0.0 0.0 0.00 0.00 0.00 90 1016.0
20260901054502 67 211 0.0 0.0 0.00 0.00 0.00 90 1016.2
20260901053000 67 211 0.0 0.0 0.00 0.00 0.00 90 1016.2
20260901051500 67 211 0.0 0.0 0.00 0.00 0.00 90 1016.3
20260901050052 68 211 0.0 0.0 0.00 0.00 0.00 89 1016.6
20260901044556 68 211 0.0 0.0 0.00 0.00 0.00 89 1016.5
20260901043046 68 211 0.0 0.0 0.00 0.00 0.00 89 1016.6
20260901041545 68 211 0.0 1.0 0.00 0.00 0.00 89 1016.7
20260901040049 68 211 0.0 0.0 0.00 0.00 0.00 88 1016.6
20260901034544 68 211 0.0 0.0 0.00 0.00 0.00 88 1016.2
20260901033055 68 211 0.0 1.0 0.00 0.00 0.00 87 1016.3
20260901031539 68 211 0.0 0.0 0.00 0.00 0.00 87 1016.2
20260901030034 69 211 0.0 0.0 0.00 0.00 0.00 87 1016.6
20260901024529 69 211 0.0 0.0 0.00 0.00 0.00 87 1016.4
20260901023026 69 211 0.0 0.0 0.00 0.00 0.00 87 1016.6
20260901021525 69 211 0.0 0.0 0.00 0.00 0.00 86 1016.6
20260901020031 69 211 0.0 0.0 0.00 0.00 0.00 85 1016.7
20260901014522 70 211 0.0 0.0 0.00 0.00 0.00 85 1016.6
20260901013021 70 211 0.0 0.0 0.00 0.00 0.00 84 1016.6
20260901011519 70 211 0.0 0.0 0.00 0.00 0.00 84 1016.7
20260901010004 70 211 0.0 0.0 0.00 0.00 0.00 84 1016.6
20260901004600 71 211 0.0 1.0 0.00 0.00 0.00 83 1016.6
20260901003050 71 211 0.0 1.0 0.00 0.00 0.00 82 1016.5
20260901001548 71 203 0.0 1.0 0.00 0.00 0.00 81 1016.4
20260901000045 71 203 0.0 1.0 0.00 0.00 0.00 83 1016.4
20260831234551 71 203 0.0 1.0 0.00 0.00 0.00 82 1016.4
20260831233041 72 203 0.0 0.0 0.00 0.00 0.00 82 1016.4
20260831231540 73 203 0.0 0.0 0.00 0.00 0.00 81 1016.4
20260831230038 73 203 0.0 0.0 0.00 0.00 0.00 81 1016.6
20260831224535 73 203 0.0 0.0 0.00 0.00 0.00 80 1016.6
20260831223016 73 203 0.0 0.0 0.00 0.00 0.00 79 1016.7
20260831221513 74 203 0.0 1.0 0.00 0.00 0.00 77 1016.8
20260831220109 75 203 0.0 0.0 0.00 0.00 0.00 76 1016.9
20260831214609 75 203 0.0 1.0 0.00 0.00 0.00 75 1016.8
20260831213056 76 203 0.0 1.0 0.00 0.00 0.00 74 1016.8
20260831211556 76 203 0.0 0.0 0.00 0.00 0.00 73 1016.8
20260831210054 77 203 0.0 1.0 0.00 0.00 0.00 73 1016.9
20260831204553 77 203 0.0 1.0 0.00 0.00 0.00 71 1016.9
20260831203100 77 203 0.0 2.0 0.00 0.00 0.00 69 1016.9
20260831201553 78 203 0.0 1.0 0.00 0.00 0.00 66 1017.1
20260831200031 78 207 0.0 1.0 0.00 0.00 0.00 66 1017.2
20260831194533 78 198 0.0 4.0 0.00 0.00 0.00 62 1017.3
20260831193017 79 222 0.0 1.0 0.00 0.00 0.00 60 1017.5
20260831191518 80 211 0.0 2.0 0.00 0.00 0.00 56 1017.6
20260831190015 81 197 0.0 3.0 0.00 0.00 0.00 56 1017.8
20260831184514 81 188 0.0 3.0 0.00 0.00 0.00 57 1017.8
20260831183012 82 235 0.0 3.0 0.00 0.00 0.00 58 1017.8
20260831181509 81 188 0.0 3.0 0.00 0.00 0.00 59 1018.1
20260831180005 80 188 0.0 3.0 0.00 0.00 0.00 58 1018.4
20260831174502 78 210 0.0 3.0 0.00 0.00 0.00 62 1018.5
20260831173055 78 210 0.0 2.0 0.00 0.00 0.00 64 1018.7
20260831171545 77 194 0.0 2.0 0.00 0.00 0.00 65 1018.8
20260831170044 77 207 0.0 2.0 0.00 0.00 0.00 64 1019.1
20260831164544 78 193 0.0 2.0 0.00 0.00 0.00 64 1019.0
20260831163040 78 207 0.0 3.0 0.00 0.00 0.00 66 1019.1
20260831161541 76 200 0.0 3.0 0.00 0.00 0.00 68 1019.4
20260831160035 76 203 0.0 3.0 0.00 0.00 0.00 68 1019.5
20260831154534 76 210 0.0 2.0 0.00 0.00 0.00 67 1019.6
20260831153013 76 207 0.0 3.0 0.00 0.00 0.00 69 1019.7
20260831151514 76 230 0.0 2.0 0.00 0.00 0.00 69 1019.7
20260831150113 76 208 0.0 1.0 0.00 0.00 0.00 69 1019.8
20260831144600 75 201 0.0 3.0 0.00 0.00 0.00 70 1019.6
20260831143054 75 214 0.0 1.0 0.00 0.00 0.00 71 1019.8
20260831141539 73 207 0.0 2.0 0.00 0.00 0.00 74 1019.9
20260831140037 72 200 0.0 3.0 0.00 0.00 0.00 78 1020.0
20260831134523 70 190 0.0 1.0 0.00 0.00 0.00 83 1019.9
20260831133031 67 201 0.0 2.0 0.00 0.00 0.00 86 1020.0
20260831131522 66 182 0.0 2.0 0.00 0.00 0.00 89 1020.0
20260831130021 64 205 0.0 2.0 0.00 0.00 0.00 92 1020.1
20260831124521 63 200 0.0 2.0 0.00 0.00 0.00 95 1020.3
20260831123020 62 197 0.0 0.0 0.00 0.00 0.00 97 1020.3
20260831121519 60 197 0.0 0.0 0.00 0.00 0.00 97 1020.3
20260831120025 59 197 0.0 0.0 0.00 0.00 0.00 97 1020.3
20260831114559 58 197 0.0 0.0 0.00 0.00 0.00 97 1020.2
20260831113106 57 197 0.0 0.0 0.00 0.00 0.00 97 1020.1
20260831111545 56 197 0.0 0.0 0.00 0.00 0.00 96 1020.0
20260831110046 56 197 0.0 0.0 0.00 0.00 0.00 96 1019.8
20260831104543 56 197 0.0 0.0 0.00 0.00 0.00 96 1019.4
20260831103039 56 197 0.0 0.0 0.00 0.00 0.00 96 1019.3
20260831101549 56 197 0.0 0.0 0.00 0.00 0.00 96 1019.3